Torna al catalogo

STARLINK-36844

AttivoComunicazioniSSO
NORAD 68117·PAYLOAD·🇺🇸 United States

Lanciato Mar 8, 2026 da Vandenberg Space Force Base

Loading…

Prossimi Passaggi (prossime 24 ore)

TLE

AggiornatoSource: CelesTrak SupGP

Epoca: Sep 14, 2026, 22:53 UTC

1 68117C 26044S   26257.95395833 -.00034111  00000+0 -10595-2 0  2576
2 68117  97.2851 217.0064 0001651  85.8991 118.1097 15.33438501    11

Traccia STARLINK-36844 in tempo reale con AllMySat

Download on the App Store